www.pogodaiklimat.ru

Погода и климат >> Архив погоды >> Россия >> Якутия >> Чурапча


ПОГОДА в Чурапче

  • Прогноз погоды в Чурапче
  • Монитор погоды в Чурапче
  • Климат города

АРХИВ ПОГОДЫ в Чурапче

Время (UTC), дата Ветер
(напр.,м/с)
 
Видим.   Явления Облачность Т
(С)
Тd
(С)
f
(%)
Тe
(С)
Тes
(С)
Комфортность P
(гПа)
Po
(гПа)
Тmin
(С)
Tmax
(С)
R
(мм)
R24
(мм)
S
(см)
09 19.06 ЮЗ 2 50 км 8/8 600 м
[Cu med, cong]
+26.0 +8.9 34 +26 +27 жарко 1006.2 985.5
12 19.06 З 2 50 км 6/4 600 м
[Sc diur, vesp Ci sp]
+24.4 +9.5 39 +25 +25 комфорт 1006.6 985.8 +29.5
15 19.06 ЮЗ 1 50 км 9/0
[Cs]
+17.3 +10.9 66 +18 +18 1007.6 986.3
18 19.06 Ю 1 50 км 8/0
[Ci sp]
+13.7 +5.8 59 +14 +14 1008.4 986.8
21 19.06 ЮЗ 3 50 км 6/0
[Ci sp]
+17.0 +4.7 44 +17 +19 1008.3 986.9
00 20.06 З 4 50 км 9/6 600 м
[Sc Ac trans]
+19.2 +5.2 40 +20 +21 1008.2 987.0 +13.4
03 20.06 З 4
{11}
50 км слабый дождь 9/9 600 м
[Sc]
+20.7 +5.8 38 +22 +23 комфорт 1007.7 986.6
06 20.06 З 2
{10}
50 км {дождь} 9/8 600 м
[Sc Ac trans]
+21.7 +7.1 39 +23 +24 комфорт 1006.2 985.2
09 20.06 СЗ 3
{11}
50 км 9/8 600 м
[Sc Ac trans]
+21.5 +7.0 39 +22 +23 комфорт 1005.5 984.5
12 20.06 В 2 50 км в посл. час дождь 9/9 600 м
[Sc]
+18.2 +11.7 66 +19 +19 1004.2 983.0 +23.5 0.0
15 20.06 С 2 50 км 9/9 600 м
[Sc]
+16.7 +11.4 71 +17 +17 1001.8 980.6
18 20.06 З 3 50 км 9/3 600 м
[Sc Ci fib]
+17.6 +12.2 71 +18 +18 1000.3 979.2
21 20.06 З 4 50 км 6/0
[Ci fib]
+17.1 +10.6 66 +17 +18 1000.5 979.3
00 21.06 С 4 50 км 5/5 600 м
[Cu hum]
+18.6 +7.3 48 +19 +22 1002.2 981.1 +16.6
03 21.06 С 4
{10}
50 км 4/4 600 м
[Cu hum]
+21.3 +4.8 34 +22 +27 комфорт 1003.8 982.8
06 21.06 С 2
{11}
50 км 6/4 600 м
[Cu hum Ci fib]
+23.2 +4.3 29 +23 +29 комфорт 1004.2 983.3
09 21.06 С 2 50 км 8/8 600 м
[Cu hum Ac trans]
+23.8 +6.2 32 +24 +24 комфорт 1003.8 983.0
12 21.06 З 1 50 км 8/0
[Ac trans]
+21.5 +8.8 44 +23 +23 комфорт 1004.2 983.2 +25.5
15 21.06 Ю 1 50 км 4/0
[Ac trans]
+13.1 +8.6 74 +13 +13 1005.2 983.6
18 21.06 штиль 0 50 км 4/0
[Ac trans]
+9.5 +7.7 89 +9 +9 1005.5 983.6
21 21.06 Ю 1 50 км 9/0
[Ac As]
+12.7 +9.2 79 +13 +14 1005.7 984.1
00 22.06 ЮЗ 1 50 км 6/0
[Ac trans Ci fib]
+21.7 +7.9 41 +23 +31 комфорт 1004.7 983.7 +8.5
03 22.06 ЮЗ 2 50 км 6/0
[Ac trans Ci fib]
+26.0 +4.0 24 +25 +35 комфорт 1003.3 982.6
06 22.06 ЮВ 3 50 км 9/3 600 м
[Cu med, cong Ac trans Ci fib]
+26.7 +6.8 28 +26 +30 жарко 1001.7 981.1
09 22.06 В 2 50 км 8/4 600 м
[Cu med, cong Ci fib]
+27.5 +8.4 30 +27 +29 жарко 1001.1 980.6
12 22.06 В 1 50 км 10/0
[Ac trans Ci fib]
+23.7 +13.7 53 +26 +26 жарко 1001.5 980.8 +28.5
15 22.06 ЮВ 1 50 км 6/0
[Ac trans]
+18.5 +12.7 69 +20 +20 1002.5 981.4
18 22.06 штиль 0 50 км 6/0
[Ac trans Ci fib]
+14.7 +11.2 80 +14 +14 1003.3 981.9
21 22.06 В 1 50 км 4/0
[Ci fib]
+18.2 +11.5 65 +20 +22 1004.6 983.4
00 23.06 В 2 50 км 3/0
[Ci fib]
+25.8 +9.6 36 +26 +35 жарко 1003.3 982.7 +13.6
03 23.06 ЮВ 3 50 км 3/0
[Ci fib]
+29.0 +8.5 28 +29 +39 жарко 1002.8 982.4
06 23.06 ЮВ 4 50 км 3/0
[Ci fib]
+30.3 +9.3 27 +30 +36 жарко 1001.7 981.4
09 23.06 Ю 4 50 км 8/0
[Ci fib]
+29.9 +10.2 29 +30 +31 жарко 1001.3 981.0
12 23.06 Ю 5 50 км 8/0
[As trans Ci fib]
+25.9 +9.8 36 +27 +27 жарко 1001.7 981.1 +31.5
15 23.06 Ю 5 50 км 9/3 600 м
[Cu med, cong As trans]
+22.2 +8.8 42 +24 +24 комфорт 1002.3 981.4
18 23.06 Ю 6
{11}
50 км 9/4 600 м
[Sc diur, vesp As trans]
+19.0 +6.3 43 +19 +19 1002.3 981.2
21 23.06 Ю 5
{10}
50 км 10/10 600 м
[Sc]
+17.0 +6.6 50 +16 +16 1003.1 981.8
00 24.06 ЮВ 4 50 км 9/8 600 м
[Sc Ac trans]
+17.4 +7.6 53 +17 +18 1003.7 982.4 +17.0
03 24.06 С 3 50 км 9/0
[As trans]
+22.0 +10.0 46 +24 +29 комфорт 1003.2 982.3
06 24.06 В 4 50 км 9/0
[Ci fib]
+25.5 +12.7 45 +27 +33 жарко 1002.4 981.8
09 24.06 ЮВ 4 50 км 9/3 1000 м
[Cu med, cong Ci fib]
+25.8 +13.3 46 +28 +29 жарко 1002.5 981.9
12 24.06 штиль 0 50 км 8/3 600 м
[Sc Ci fib]
+20.8 +14.5 67 +23 +23 комфорт 1003.9 982.9 +27.0
15 24.06 С 2 50 км 9/3 600 м
[Sc Cs]
+17.6 +12.8 73 +18 +18 1004.8 983.6
18 24.06 С 2 50 км 8/5 600 м
[Sc diur, vesp Ci fib]
+15.3 +11.6 79 +15 +15 1005.9 984.5
21 24.06 СВ 3 50 км 8/6 600 м
[Cu med, cong Ci fib]
+15.7 +8.3 61 +15 +16 1006.9 985.5
00 25.06 СВ 3 50 км 3/0
[Ci fib]
+18.0 +8.9 55 +18 +25 1008.3 987.0 +14.5
03 25.06 СВ 4 50 км 3/0
[Ci fib]
+22.0 +6.1 36 +23 +31 комфорт 1007.8 986.8
06 25.06 СВ 4 50 км 1/0
[Ci fib]
+23.6 +2.0 24 +23 +29 комфорт 1007.3 986.4
09 25.06 С 3 50 км 8/0
[Ci sp]
+24.0 +3.5 26 +23 +25 комфорт 1007.0 986.1
12 25.06 СВ 1 50 км 1/1 1000 м
[Cu hum]
+22.0 +7.8 40 +23 +23 комфорт 1007.6 986.6 +25.0
15 25.06 СВ 1 50 км ясно +13.3 +6.5 63 +14 +14 1008.8 987.1
18 25.06 З 1 50 км ясно +8.8 +6.5 85 +8 +8 1009.5 987.5
21 25.06 штиль 0 50 км ясно +15.9 +7.3 57 +16 +19 1009.5 988.0
00 26.06 В 2 50 км ясно +21.3 +7.0 40 +22 +31 комфорт 1008.8 987.7 +8.4
03 26.06 В 3 50 км 3/0
[Ci fib]
+25.0 +5.3 28 +25 +35 комфорт 1007.7 986.9
06 26.06 В 2 50 км 3/0
[Ci fib]
+27.0 +5.5 25 +26 +35 жарко 1006.7 986.0

 

Местоположение метеостанции Чурапча (Якутия, Россия): широта 62.03 долгота 132.60 высота над уровнем моря 186 м.

В архиве по умолчанию представлена погода в Чурапче за последнюю неделю. Архивные данные за месяц целиком и за предыдущие месяцы, начиная с января 2011 года, Вы можете получить, выбрав интересующий диапазон дат из раскрывающегося списка и нажав кнопку "Ввод!".

Внимание! Время в таблицах - всемирное. Для получения местного времени необходимо прибавить поправку, которая в Чурапче равна 9 ч.

Смотрите также архив погоды в соседних городах и на ближайших метеорологических станциях:

Погода в Ытык-Кюёле (Якутия, Россия) (60 км)
Погода в Крест-Хальджае (Якутия, Россия) (128 км)
Погода в Амге (Якутия, Россия) (131 км)
Погода в Верхоянском Перевозе (Якутия, Россия) (147 км)
Погода в Охотском Перевозе (Якутия, Россия) (153 км)
Погода в Якутске (Якутия, Россия) (157 км)
Погода в Намцах (Якутия, Россия) (173 км)
Погода в Покровске (Якутия, Россия) (194 км)
Погода в Усть-Мае (Якутия, Россия) (210 км)
Погода в Тегюльте (Якутия, Россия) (222 км)

Пояснения к столбцам:

Ветер - указаны скорость ветра в м/с - средняя за 10 мин, порывы в срок и между сроками (в фигурных скобках) и направление, откуда дует ветер: С - северный, СВ - северо-восточный, В - восточный, ЮВ - юго-восточный, Ю - южный, ЮЗ - юго-западный, З - западный, СЗ - северо-западный.
Видимость - горизонтальная дальность видимости в метрах или километрах. При видимости от 1 до 10 км при отсутствии осадков обычно наблюдается дымка, при ухудшении видимости до 1 км и менее - туман. В сухую погоду видимость может ухудшаться дымом, пылью или мглою.
Явления - указаны атмосферные явления, наблюдавшиеся в срок или в последний час перед сроком; фигурными скобками обозначены явления, наблюдавшиеся между сроками (за 1-3 часа до срока); квадратными скобками обозначены град или гололедные отложения с указанием их диаметра в мм.
Облачность - указаны через наклонную черту общая и нижняя облачность в баллах и высота нижней границы облаков в метрах; квадратными скобками обозначены формы облаков: Ci - перистые, Cs - перисто-слоистые, Cc - перисто-кучевые, Ac - высококучевые, As - высокослоистые, Sc - слоисто-кучевые, Ns - слоисто-дождевые, Cu - кучевые, Cb - кучево-дождевые. Подробнее классификацию облаков см. в Атласе облаков (PDF).
T - Температура воздуха - температура, измеренная на высоте 2 м над землей.
Td - Температура точки росы - температура, при понижении до которой содержащийся в воздухе водяной пар достигнет насыщения.
f - Относительная влажность воздуха - влажноcть воздуха, измеренная на высоте 2 м над землей.
Te - Эффективная температура - температура, которую ощущает одетый по сезону человек в тени. Характеристика душности погоды. При расчете учитывается влияние влажности воздуха и скорости ветра на теплоощущения человека.
Tes - Эффективная температура на солнце - температура, которую ощущает человек, с поправкой на солнечный нагрев. Характеристика знойности погоды. Зависит от высоты солнца над горизонтом, облачности и скорости ветра. Ночью, в пасмурную погоду, а также при ветре 12 м/с и более поправка равна нулю.
P - Атмосферное давление - приведенное к уровню моря атмосферное давление.
Po - Атмосферное давление - измеренное на уровне метеостанции атмосферное давление.
Tmin - Минимальная температура - минимум температуры воздуха на высоте 2 м над землей.
Tmax - Максимальная температура - максимум температуры воздуха на высоте 2 м над землей.
R - Количество осадков - Количество выпавших осадков за период времени, мм. При наведении курсора мыши на число - период времени, за который выпало указанное количество осадков.
R24 - Количество осадков - Количество выпавших осадков за 24 часа, мм.
S - Снежный покров - Высота снежного покрова, см. При наведении курсора мыши на число - состояние снежного покрова и степень покрытия местности в баллах.